DW9439 Weather Reports


time (UTC)temp
F
wind
direction
speed
knots
gust
knots
rain 1hr
in
rain 24hr
in
rain mn
in
humidity
%
barometer
mb
20260505011640 71 101 2.6 6.1 0.00 0.00 0.00 30 1007.6
20260505011334 71 101 1.7 6.1 0.00 0.00 0.00 31 1007.6
20260505011021 71 101 1.7 5.2 0.00 0.00 0.00 30 1007.6
20260505010713 72 101 2.6 5.2 0.00 0.00 0.00 30 1007.4
20260505010412 72 101 2.6 5.2 0.00 0.00 0.00 29 1007.4
20260505010103 73 101 3.5 5.2 0.00 0.00 0.00 30 1007.4
20260505005758 73 101 3.5 5.2 0.00 0.00 0.00 29 1007.4
20260505005459 73 101 2.6 5.2 0.00 0.00 0.00 28 1007.4
20260505005146 74 101 2.6 5.2 0.00 0.00 0.00 27 1007.2
20260505004422 75 101 3.5 5.2 0.00 0.00 0.00 27 1007.3
20260505004115 75 101 3.5 5.2 0.00 0.00 0.00 26 1007.3
20260505003812 75 101 2.6 4.3 0.00 0.00 0.00 25 1007.3
20260505003500 76 101 2.6 7.8 0.00 0.00 0.00 25 1007.3
20260505003150 76 101 2.6 7.8 0.00 0.00 0.00 25 1007.3
20260505002847 76 101 3.5 7.8 0.00 0.00 0.00 25 1007.3
20260505002540 76 101 4.3 7.8 0.00 0.00 0.00 25 1007.2
20260505001815 76 101 4.3 7.8 0.00 0.00 0.00 25 1007.2
20260505001504 76 101 5.2 7.8 0.00 0.00 0.00 25 1007.0
20260505001151 77 101 5.2 7.8 0.00 0.00 0.00 25 1007.0
20260505000846 77 101 5.2 7.8 0.00 0.00 0.00 25 1007.2
20260505000537 77 101 5.2 9.6 0.00 0.00 0.00 25 1007.1
20260504235825 77 103 5.2 9.6 0.00 0.00 0.00 24 1007.0
20260504235522 77 103 5.2 9.6 0.00 0.00 0.00 24 1007.0
20260504235209 77 103 6.1 9.6 0.00 0.00 0.00 24 1007.1
20260504234903 77 103 6.1 9.6 0.00 0.00 0.00 24 1007.0
20260504234551 77 104 7.0 11.3 0.00 0.00 0.00 24 1007.0
20260504234241 77 104 6.1 11.3 0.00 0.00 0.00 24 1007.0
20260504233937 77 104 6.1 11.3 0.00 0.00 0.00 25 1006.9
20260504233632 78 105 6.1 13.0 0.00 0.00 0.00 25 1006.9
20260504233320 78 104 7.0 13.0 0.00 0.00 0.00 25 1007.0
20260504233016 78 103 7.8 13.0 0.00 0.00 0.00 25 1007.0
20260504232717 78 103 7.8 13.0 0.00 0.00 0.00 24 1007.0
20260504231547 78 103 6.1 11.3 0.00 0.00 0.00 23 1006.9
20260504231245 78 103 7.0 11.3 0.00 0.00 0.00 23 1007.2
20260504230935 78 107 7.0 11.3 0.00 0.00 0.00 23 1007.2
20260504230634 78 103 6.1 11.3 0.00 0.00 0.00 23 1007.1
20260504230328 78 96 5.2 11.3 0.00 0.00 0.00 23 1007.2
20260504230027 78 78 5.2 10.4 0.00 0.00 0.00 24 1007.1
20260504225305 78 69 5.2 10.4 0.00 0.00 0.00 24 1007.3
20260504224955 79 40 4.3 9.6 0.00 0.00 0.00 24 1007.3
20260504224656 79 355 3.5 7.8 0.00 0.00 0.00 23 1007.3
20260504224356 80 320 2.6 6.1 0.00 0.00 0.00 23 1007.1
20260504224048 80 319 2.6 6.1 0.00 0.00 0.00 22 1007.3
20260504223321 82 317 0.0 4.3 0.00 0.00 0.00 18 1007.4
20260504223013 82 317 0.0 0.0 0.00 0.00 0.00 16 1007.3
20260504222716 82 317 0.0 0.0 0.00 0.00 0.00 16 1007.2
20260504222419 82 317 0.0 0.0 0.00 0.00 0.00 15 1007.1
20260504222107 82 317 0.9 3.5 0.00 0.00 0.00 15 1007.2
20260504221810 82 317 0.0 5.2 0.00 0.00 0.00 15 1007.2
20260504221511 82 317 0.0 5.2 0.00 0.00 0.00 15 1007.3
20260504221202 81 317 0.9 5.2 0.00 0.00 0.00 15 1007.3
20260504220906 82 317 2.6 6.1 0.00 0.00 0.00 15 1007.4
20260504220603 82 317 2.6 6.1 0.00 0.00 0.00 15 1007.3
20260504215839 82 317 2.6 9.6 0.00 0.00 0.00 16 1007.4
20260504215119 82 317 5.2 9.6 0.00 0.00 0.00 15 1007.6
20260504214805 82 317 5.2 9.6 0.00 0.00 0.00 16 1007.6
20260504214504 82 317 6.1 9.6 0.00 0.00 0.00 16 1007.6
20260504213733 82 305 6.1 9.6 0.00 0.00 0.00 15 1007.5
20260504213425 82 301 5.2 9.6 0.00 0.00 0.00 15 1007.6
20260504213116 82 294 5.2 9.6 0.00 0.00 0.00 14 1007.6
20260504212817 82 279 4.3 10.4 0.00 0.00 0.00 15 1007.7
20260504212515 82 279 2.6 10.4 0.00 0.00 0.00 14 1007.8
20260504211758 82 277 4.3 10.4 0.00 0.00 0.00 14 1007.9
20260504211457 82 277 5.2 10.4 0.00 0.00 0.00 14 1008.0
20260504211201 82 276 4.3 10.4 0.00 0.00 0.00 14 1008.0
20260504210449 83 275 1.7 9.6 0.00 0.00 0.00 14 1007.9
20260504210137 83 275 2.6 9.6 0.00 0.00 0.00 14 1008.0
20260504205832 83 275 4.3 9.6 0.00 0.00 0.00 14 1007.9
20260504205525 83 275 5.2 9.6 0.00 0.00 0.00 14 1008.1
20260504204347 83 284 5.2 8.7 0.00 0.00 0.00 14 1008.1
20260504204043 83 284 4.3 7.8 0.00 0.00 0.00 14 1008.2
20260504203733 83 282 3.5 7.8 0.00 0.00 0.00 14 1008.2
20260504203008 83 281 1.7 7.0 0.00 0.00 0.00 14 1008.2
20260504202257 83 281 4.3 7.0 0.00 0.00 0.00 14 1008.5
20260504201533 83 281 2.6 7.8 0.00 0.00 0.00 14 1008.5
20260504201229 83 281 2.6 7.8 0.00 0.00 0.00 14 1008.4
20260504200916 83 281 3.5 7.8 0.00 0.00 0.00 14 1008.6
20260504200602 83 281 3.5 7.8 0.00 0.00 0.00 14 1008.7
20260504195400 82 281 1.7 7.0 0.00 0.00 0.00 15 1008.8
20260504195053 82 281 1.7 6.1 0.00 0.00 0.00 15 1008.8
20260504194750 82 281 3.5 7.8 0.00 0.00 0.00 15 1008.8
20260504194437 82 281 3.5 7.8 0.00 0.00 0.00 15 1008.9
20260504194127 82 281 3.5 7.8 0.00 0.00 0.00 15 1009.0
20260504193830 82 281 3.5 7.8 0.00 0.00 0.00 16 1009.1
20260504193523 81 281 4.3 7.8 0.00 0.00 0.00 15 1009.1
20260504193218 82 281 4.3 7.8 0.00 0.00 0.00 15 1009.1
20260504192908 82 281 4.3 7.8 0.00 0.00 0.00 16 1009.1
20260504192602 82 286 4.3 7.8 0.00 0.00 0.00 16 1009.2
20260504192300 82 286 3.5 7.8 0.00 0.00 0.00 16 1009.2
20260504191958 82 290 2.6 7.8 0.00 0.00 0.00 15 1009.2
20260504191659 82 290 1.7 7.8 0.00 0.00 0.00 15 1009.3
20260504191358 82 290 2.6 7.8 0.00 0.00 0.00 15 1009.3
20260504191047 82 292 2.6 7.8 0.00 0.00 0.00 15 1009.3
20260504190750 82 292 3.5 10.4 0.00 0.00 0.00 15 1009.3
20260504190449 82 292 3.5 10.4 0.00 0.00 0.00 15 1009.3
20260504190152 82 292 4.3 10.4 0.00 0.00 0.00 15 1009.3
20260504185840 82 292 5.2 10.4 0.00 0.00 0.00 15 1009.4
20260504185536 82 292 5.2 10.4 0.00 0.00 0.00 14 1009.4
20260504185234 82 292 5.2 10.4 0.00 0.00 0.00 15 1009.4
20260504184925 82 284 5.2 8.7 0.00 0.00 0.00 15 1009.5
20260504184619 82 284 5.2 8.7 0.00 0.00 0.00 15 1009.4
20260504184315 82 283 5.2 8.7 0.00 0.00 0.00 14 1009.5
20260504184019 83 281 5.2 13.0 0.00 0.00 0.00 15 1009.6
20260504183711 83 281 6.1 13.0 0.00 0.00 0.00 15 1009.6
20260504183415 83 281 7.0 13.0 0.00 0.00 0.00 14 1009.7
20260504183100 83 280 7.8 13.0 0.00 0.00 0.00 14 1009.7
20260504182747 84 262 7.8 13.0 0.00 0.00 0.00 14 1009.7
20260504182448 84 266 7.8 13.0 0.00 0.00 0.00 14 1009.8
20260504182138 85 261 6.1 12.2 0.00 0.00 0.00 13 1009.8
20260504181828 85 264 5.2 12.2 0.00 0.00 0.00 15 1010.0
20260504181520 84 283 5.2 12.2 0.00 0.00 0.00 16 1009.8
20260504181215 84 284 5.2 12.2 0.00 0.00 0.00 16 1010.0
20260504180909 84 284 5.2 12.2 0.00 0.00 0.00 14 1010.1
20260504180605 85 292 4.3 12.2 0.00 0.00 0.00 15 1010.1
20260504180254 85 284 3.5 8.7 0.00 0.00 0.00 15 1010.2
20260504175953 84 284 4.3 8.7 0.00 0.00 0.00 16 1010.2
20260504175229 84 279 4.3 10.4 0.00 0.00 0.00 15 1010.5
20260504174921 83 277 4.3 10.4 0.00 0.00 0.00 16 1010.5
20260504174613 83 277 4.3 10.4 0.00 0.00 0.00 16 1010.7
20260504173835 83 266 3.5 12.2 0.00 0.00 0.00 16 1010.7
20260504173528 83 266 6.1 12.2 0.00 0.00 0.00 16 1010.8
20260504173227 83 265 6.1 12.2 0.00 0.00 0.00 16 1010.8
20260504172919 83 265 6.1 12.2 0.00 0.00 0.00 16 1010.9
20260504172607 83 265 3.5 12.2 0.00 0.00 0.00 16 1010.9
20260504172256 82 271 2.6 9.6 0.00 0.00 0.00 17 1011.0
20260504171958 82 268 1.7 10.4 0.00 0.00 0.00 17 1011.0
20260504171655 82 284 2.6 10.4 0.00 0.00 0.00 16 1011.1
20260504170931 82 284 4.3 10.4 0.00 0.00 0.00 16 1011.1
20260504170623 82 280 3.5 10.4 0.00 0.00 0.00 16 1011.1
20260504160401 79 281 7.8 11.3 0.00 0.00 0.00 22 1011.4
20260504150634 73 284 7.8 11.3 0.00 0.00 0.00 32 1012.0
20260504150336 72 292 7.8 10.4 0.00 0.00 0.00 32 1011.9
20260504141114 64 309 6.1 9.6 0.00 0.00 0.00 46 1012.2
20260504140809 63 316 6.1 8.7 0.00 0.00 0.00 46 1012.2
20260504140457 63 320 6.1 8.7 0.00 0.00 0.00 46 1012.4
20260504140142 63 336 6.1 8.7 0.00 0.00 0.00 46 1012.4
20260504130722 47 28 3.5 5.2 0.00 0.00 0.00 79 1012.2
20260504130410 46 28 2.6 5.2 0.00 0.00 0.00 80 1012.3
20260504120131 40 28 1.7 5.2 0.00 0.00 0.00 83 1011.7
20260504110458 39 28 1.7 3.5 0.00 0.00 0.00 78 1011.6
20260504110150 40 28 1.7 3.5 0.00 0.00 0.00 78 1011.7
20260504081806 43 28 4.3 6.1 0.00 0.00 0.00 72 1013.2
20260504081041 43 28 3.5 6.1 0.00 0.00 0.00 72 1013.3
20260504080730 43 28 3.5 5.2 0.00 0.00 0.00 72 1013.2
20260504060141 49 28 0.9 3.5 0.00 0.00 0.00 59 1014.2
20260504050749 49 28 1.7 2.6 0.00 0.00 0.00 52 1014.2
20260504050446 49 28 0.9 2.6 0.00 0.00 0.00 51 1014.3
20260504050135 50 28 0.0 2.6 0.00 0.00 0.00 50 1014.3
20260504045823 50 28 0.0 0.9 0.00 0.00 0.00 49 1014.3
20260504045515 50 28 0.0 0.9 0.00 0.00 0.00 49 1014.2
20260504044739 51 28 0.0 0.9 0.00 0.00 0.00 48 1014.3
20260504044440 51 28 0.0 0.9 0.00 0.00 0.00 47 1014.2
20260504044142 51 28 0.0 0.9 0.00 0.00 0.00 47 1014.3
20260504043834 51 28 0.0 0.9 0.00 0.00 0.00 47 1014.3
20260504043534 51 28 0.0 0.9 0.00 0.00 0.00 46 1014.3
20260504043233 52 28 0.0 0.9 0.00 0.00 0.00 46 1014.3
20260504042926 52 28 0.0 0.9 0.00 0.00 0.00 45 1014.3
20260504042622 52 28 0.0 0.9 0.00 0.00 0.00 45 1014.3
20260504042324 52 28 0.0 0.9 0.00 0.00 0.00 45 1014.3
20260504042019 52 28 0.9 0.9 0.00 0.00 0.00 44 1014.3
20260504041708 52 28 0.9 2.6 0.00 0.00 0.00 44 1014.3
20260504041356 53 28 0.9 2.6 0.00 0.00 0.00 44 1014.3
20260504041055 53 28 0.9 2.6 0.00 0.00 0.00 44 1014.3
20260504040746 53 28 0.9 2.6 0.00 0.00 0.00 44 1014.4
20260504040023 53 28 0.9 2.6 0.00 0.00 0.00 44 1014.4
20260504035712 53 28 0.9 1.7 0.00 0.00 0.00 43 1014.3
20260504035359 53 28 0.0 0.9 0.00 0.00 0.00 43 1014.3
20260504035059 53 28 0.0 0.9 0.00 0.00 0.00 43 1014.3
20260504034803 53 28 0.0 0.9 0.00 0.00 0.00 42 1014.3
20260504033207 54 28 0.0 0.0 0.00 0.00 0.00 40 1014.4
20260504032909 54 28 0.0 0.0 0.00 0.00 0.00 39 1014.4
20260504032603 55 28 0.0 0.0 0.00 0.00 0.00 39 1014.4
20260504032304 56 28 0.0 0.9 0.00 0.00 0.00 38 1014.4
20260504032007 56 28 0.0 0.9 0.00 0.00 0.00 38 1014.4
20260504031700 57 28 0.0 2.6 0.00 0.00 0.00 37 1014.4
20260504031347 58 28 0.0 2.6 0.00 0.00 0.00 36 1014.4
20260504031035 58 28 0.0 2.6 0.00 0.00 0.00 36 1014.3
20260504030304 58 28 0.0 2.6 0.00 0.00 0.00 36 1014.3
20260504025953 58 28 0.0 2.6 0.00 0.00 0.00 36 1014.3
20260504025646 58 28 0.0 0.9 0.00 0.00 0.00 37 1014.2
20260504025335 58 28 0.0 0.9 0.00 0.00 0.00 37 1014.2
20260504025029 58 28 0.0 0.9 0.00 0.00 0.00 37 1014.2
20260504024724 58 28 0.0 0.9 0.00 0.00 0.00 37 1014.2
20260504024421 59 28 0.0 0.9 0.00 0.00 0.00 36 1014.2
20260504024125 59 28 0.0 0.9 0.00 0.00 0.00 36 1014.2
20260504023827 59 28 0.0 1.7 0.00 0.00 0.00 36 1014.1
20260504023521 59 28 0.0 1.7 0.00 0.00 0.00 36 1014.1
20260504022756 60 28 0.9 2.6 0.00 0.00 0.00 35 1014.1
20260504022452 60 28 0.9 2.6 0.00 0.00 0.00 35 1014.1
20260504022139 60 28 0.9 2.6 0.00 0.00 0.00 35 1014.0
20260504021418 61 28 0.9 2.6 0.00 0.00 0.00 34 1014.0
20260504021107 62 28 0.9 2.6 0.00 0.00 0.00 33 1014.0
20260504020333 63 28 1.7 2.6 0.00 0.00 0.00 32 1014.0
20260504020021 63 28 1.7 2.6 0.00 0.00 0.00 32 1013.9
20260504015725 63 28 1.7 2.6 0.00 0.00 0.00 31 1013.9
20260504015425 64 28 1.7 2.6 0.00 0.00 0.00 31 1013.9
20260504015117 64 28 0.9 2.6 0.00 0.00 0.00 30 1013.9
20260504014804 64 28 0.9 2.6 0.00 0.00 0.00 30 1013.9
20260504014027 65 28 0.9 2.6 0.00 0.00 0.00 29 1013.9
20260504013722 66 28 0.9 2.6 0.00 0.00 0.00 29 1013.9
20260504013412 66 28 0.9 2.6 0.00 0.00 0.00 28 1013.9
20260504012642 68 28 0.9 2.6 0.00 0.00 0.00 28 1013.9
20260504012344 68 28 0.9 2.6 0.00 0.00 0.00 27 1013.9